Tracking 27172 objects as of 2-Apr-2023
HD Live streaming from Space Station
objects crossing your sky now

DRAGRACER 2(AUGURY)

Track DRAGRACER 2(AUGURY) now!
10-day predictions


NORAD ID: 46955
Int'l Code: 2020-085AC
Perigee: 488.8 km
Apogee: 506.8 km
Inclination: 97.5 °
Period: 94.4 minutes
Semi major axis: 6868 km
RCS: Unknown
Launch date: November 20, 2020
Source: United States (US)
Launch site: Rocket Lab Launch Complex (RLLC)
Your satellite tracking list
Your tracking list is empty




NASA's NSSDC Master Catalog

Two Line Element Set (TLE):
1 46955U 20085AC  23091.82825735  .00010844  00000-0  43561-3 0  9998
2 46955  97.4803 230.4342 0013107 166.6545 193.5042 15.25046869131167
Source of the keplerian elements: AFSPC